User: anonymous   Login
Location: Unspecified
(0.0000°N, 0.0000°E)
Time: 00:04:35
(UTC+00:00)
Language:

CASSIOPE - Orbit

View from above orbital plane
View from above orbital plane
View from above satellite
View from above satellite

Ground track
Ground track

The orbit data is extracted from the following two-line orbital elements,

1 39265U 13055A   17172.89030436 +.00001959 +00000-0 +57800-4 0  9998
2 39265 080.9696 010.2089 0687122 239.3749 113.7961 14.22845578192183
Epoch (UTC): 21 June 2017 21:22:02
Eccentricity: 0.0687122
inclination: 80.9696°
perigee height: 321 km
apogee height: 1310 km
right ascension of ascending node: 10.2089°
argument of perigee: 239.3749°
revolutions per day: 14.22845578
mean anomaly at epoch: 113.7961°
orbit number at epoch: 19218

The dashed part of the orbit path shows where the satellite is in the earth's shadow,  

DLR